Find Starlink 11579

NORAD ID: 63143 Int'l Des: 2025-043 Owner: SPXS Country: US Constellation: starlink operational
別名: STARLINK-11579 [DTC] celestrak
LEOCIRCULAR

現在のビュー

3D地球を読み込み中...

About Starlink 11579

Starlink 11579 (NORAD 63143) is a starlink constellation satellite (v2 mini d2c) launched Mar 3, 2025 by SPXS of US. It operates in LEO, CIRCULAR orbit with a mass of 960.00 kg.

次回通過

Passes for default location (London). Set your location on the main map for personalized predictions.

高度履歴

Loading altitude history...

軌道要素

1 63143U 25043M 26235.32668838 .00162921 00000-0 12484-2 0 9995
2 63143 43.0010 325.9372 0004131 297.7946 62.2503 15.70834826 85567
Epoch: Aug 23, 2026 • Age: 27 hours

現在のステータス

高度 356.6 km
遠地点 / 近地点 N/A
速度 7.70 km/s
衛星直下点 11.59°N, 3.15°W
打ち上げ日 Mar 3, 2025
運用期間 1.4 years
タイプ internet

技術仕様

分類 Payload
質量 960.00 kg
乾燥質量 910.00 kg
総質量 960.00 kg
長さ 0.30 m
直径 4.10 m
スパン 29.00 m
形状 Box + pan
製造者 SPXS
バスタイプ Starlink V2MD
フェーズステータス In Orbit
所有者/国 SPXS/US

Most Searched